This is the latest recevied weather packets stored in our database for station/object W4CPD. If no packets are shown the sender has not sent any weather packets the latest 10 day(s).
| Time | Temp. | Humidity | Pressure | Rain* | Wind** | Luminosity | Snow |
|---|---|---|---|---|---|---|---|
| 1777812015 | 10° C | 93% | 1021.9 hPa | 0 mm | - | - | - |
| 1777811715 | 9.44° C | 94% | 1021.8 hPa | 0 mm | - | - | - |
| 1777811114 | 9.44° C | 94% | 1022 hPa | 0.25 mm | - | - | - |
| 1777810216 | 8.89° C | 95% | 1021.7 hPa | 0.25 mm | - | - | - |
| 1777809917 | 8.33° C | 95% | 1021.7 hPa | 0.25 mm | - | - | - |
| 1777809314 | 8.33° C | 96% | 1021.6 hPa | 0.25 mm | - | - | - |
| 1777808416 | 7.78° C | 95% | 1021.3 hPa | 0.25 mm | - | - | - |
| 1777807215 | 7.78° C | 95% | 1021.1 hPa | 0.25 mm | - | - | - |
| 1777806928 | 7.78° C | 95% | 1021.1 hPa | 0.25 mm | - | - | - |
| 1777803331 | 8.33° C | 93% | 1021 hPa | 0.25 mm | - | - | - |
| 1777802435 | 8.33° C | 93% | 1020.6 hPa | 0.25 mm | - | - | - |
| 1777799117 | 8.33° C | 92% | 1020 hPa | 0.25 mm | - | - | - |
| 1777795231 | 8.89° C | 92% | 1019.6 hPa | 0.25 mm | - | - | - |
| 1777794614 | 8.89° C | 91% | 1019.7 hPa | 0.25 mm | - | - | - |
| 1777792213 | 9.44° C | 91% | 1019.7 hPa | 0.25 mm | - | - | - |
| 1777791013 | 10° C | 91% | 1019.5 hPa | 0.25 mm | - | - | - |
| 1777790729 | 10° C | 91% | 1019.6 hPa | 0.51 mm | - | - | - |
| 1777790114 | 10° C | 90% | 1019.5 hPa | 0.51 mm | - | - | - |
| 1777789512 | 10° C | 91% | 1019.5 hPa | 0.25 mm | - | - | - |
| 1777788928 | 10° C | 90% | 1019.6 hPa | 0.25 mm | - | - | - |
| 1777788048 | 10.56° C | 90% | 1019.5 hPa | 0.25 mm | - | - | - |
| 1777787414 | 10.56° C | 90% | 1019.5 hPa | 0.51 mm | - | - | - |
| 1777784428 | 11.11° C | 89% | 1019.3 hPa | 0.25 mm | - | - | - |
| 1777783816 | 11.11° C | 87% | 1019.2 hPa | 0.25 mm | - | - | - |
| 1777783528 | 11.11° C | 87% | 1019.1 hPa | 0.25 mm | - | - | - |
* Rain latest hour (hover to see other rain measurements)
** Current wind speed in m/s (hover to see current wind gust speed)